Location: Cutler
(25.6150°N, 80.3110°W)
Time: 06:12:48
(UTC-04:00)

Vanguard 1 - Pass Details

Date: 25 January 2018
Orbit: 650 x 3832 km, 34.2° (Epoch: 19 May)

Event Time Altitude Azimuth Distance (km) Brightness Sun altitude
Rises 08:50:25 0° 263° (W) 7,270 14.1 19.9°
Reaches altitude 10° 09:02:40 10° 233° (SW) 6,815 14.2 22.1°
Maximum altitude 09:07:14 11° 221° (SW) 6,828 14.4 23.0°
Drops below altitude 10° 09:11:53 10° 209° (SSW) 6,930 14.5 23.8°
Sets 09:25:27 0° 178° (S) 7,637 15.2 26.2°
